Time,TemperatureF,DewpointF,PressureIn,WindDirection,WindDirectionDegrees,WindSpeedMPH,WindSpeedGustMPH,Humidity,HourlyPrecipIn,Conditions,Clouds,dailyrainin,SolarRadiationWatts/m^2,SoftwareType,DateUTC
2013-05-29 00:01:00,54.0,30.0,-100.00,WSW,241,7.0,13.0,40,0.00,,,0.00,0.000000,,2013-05-29 07:01:00,
2013-05-29 00:34:00,52.0,30.0,-100.00,WSW,258,4.0,12.0,43,0.00,,,0.00,0.000000,,2013-05-29 07:34:00,
2013-05-29 00:42:00,52.0,30.0,-100.00,WSW,258,4.0,12.0,43,0.00,,,0.00,0.000000,,2013-05-29 07:42:00,
2013-05-29 00:52:00,52.0,30.0,-100.00,WSW,258,4.0,12.0,43,0.00,,,0.00,0.000000,,2013-05-29 07:52:00,
2013-05-29 01:02:00,52.0,30.0,-100.00,WSW,258,4.0,12.0,43,0.00,,,0.00,0.000000,,2013-05-29 08:02:00,
2013-05-29 01:32:00,46.0,31.0,-100.00,NW,317,2.0,5.0,56,0.00,,,0.00,0.000000,,2013-05-29 08:32:00,
2013-05-29 01:42:00,46.0,31.0,-100.00,NW,317,2.0,5.0,56,0.00,,,0.00,0.000000,,2013-05-29 08:42:00,
2013-05-29 01:52:00,46.0,31.0,-100.00,NW,317,2.0,5.0,56,0.00,,,0.00,0.000000,,2013-05-29 08:52:00,
2013-05-29 02:01:00,46.0,31.0,-100.00,NW,317,2.0,5.0,56,0.00,,,0.00,0.000000,,2013-05-29 09:01:00,
2013-05-29 02:33:00,39.0,29.0,-100.00,North,6,1.0,3.0,66,0.00,,,0.00,0.000000,,2013-05-29 09:33:00,
2013-05-29 02:42:00,39.0,29.0,-100.00,North,6,1.0,3.0,66,0.00,,,0.00,0.000000,,2013-05-29 09:42:00,
2013-05-29 02:52:00,39.0,29.0,-100.00,North,6,1.0,3.0,66,0.00,,,0.00,0.000000,,2013-05-29 09:52:00,
2013-05-29 03:02:00,39.0,29.0,-100.00,North,6,1.0,3.0,66,0.00,,,0.00,0.000000,,2013-05-29 10:02:00,
2013-05-29 03:33:00,36.0,29.0,-100.00,North,359,1.0,2.0,76,0.00,,,0.00,0.000000,,2013-05-29 10:33:00,
2013-05-29 03:42:00,36.0,29.0,-100.00,North,359,1.0,2.0,76,0.00,,,0.00,0.000000,,2013-05-29 10:42:00,
2013-05-29 03:53:00,36.0,29.0,-100.00,North,359,1.0,2.0,76,0.00,,,0.00,0.000000,,2013-05-29 10:53:00,
2013-05-29 04:02:00,36.0,29.0,-100.00,North,359,1.0,2.0,76,0.00,,,0.00,0.000000,,2013-05-29 11:02:00,
2013-05-29 04:32:00,34.0,29.0,-100.00,North,6,1.0,2.0,81,0.00,,,0.00,0.000000,,2013-05-29 11:32:00,
2013-05-29 04:42:00,34.0,29.0,-100.00,North,6,1.0,2.0,81,0.00,,,0.00,0.000000,,2013-05-29 11:42:00,
2013-05-29 04:52:00,34.0,29.0,-100.00,North,6,1.0,2.0,81,0.00,,,0.00,0.000000,,2013-05-29 11:52:00,
2013-05-29 05:01:00,34.0,29.0,-100.00,North,6,1.0,2.0,81,0.00,,,0.00,0.000000,,2013-05-29 12:01:00,
2013-05-29 05:32:00,32.0,27.0,-100.00,NW,310,1.0,2.0,83,0.00,,,0.00,0.000000,,2013-05-29 12:32:00,
2013-05-29 05:42:00,32.0,27.0,-100.00,NW,310,1.0,2.0,83,0.00,,,0.00,0.000000,,2013-05-29 12:42:00,
2013-05-29 05:52:00,32.0,27.0,-100.00,NW,310,1.0,2.0,83,0.00,,,0.00,0.000000,,2013-05-29 12:52:00,
2013-05-29 06:01:00,32.0,27.0,-100.00,NW,310,1.0,2.0,83,0.00,,,0.00,0.000000,,2013-05-29 13:01:00,
2013-05-29 06:32:00,39.0,34.0,-100.00,NE,35,1.0,2.0,81,0.00,,,0.00,15.000000,,2013-05-29 13:32:00,
2013-05-29 06:42:00,39.0,34.0,-100.00,NE,35,1.0,2.0,81,0.00,,,0.00,15.000000,,2013-05-29 13:42:00,
2013-05-29 06:53:00,39.0,34.0,-100.00,NE,35,1.0,2.0,81,0.00,,,0.00,15.000000,,2013-05-29 13:53:00,
2013-05-29 07:01:00,39.0,34.0,-100.00,NE,35,1.0,2.0,81,0.00,,,0.00,15.000000,,2013-05-29 14:01:00,
2013-05-29 07:32:00,57.0,39.0,-100.00,ENE,68,1.0,2.0,51,0.00,,,0.00,92.000000,,2013-05-29 14:32:00,
2013-05-29 07:42:00,57.0,39.0,-100.00,ENE,68,1.0,2.0,51,0.00,,,0.00,92.000000,,2013-05-29 14:42:00,
2013-05-29 07:52:00,57.0,39.0,-100.00,ENE,68,1.0,2.0,51,0.00,,,0.00,92.000000,,2013-05-29 14:52:00,
2013-05-29 08:01:00,57.0,39.0,-100.00,ENE,68,1.0,2.0,51,0.00,,,0.00,92.000000,,2013-05-29 15:01:00,
2013-05-29 08:33:00,60.0,28.0,-100.00,WSW,250,7.0,15.0,30,0.00,,,0.00,455.000000,,2013-05-29 15:33:00,
2013-05-29 08:42:00,60.0,28.0,-100.00,WSW,250,7.0,15.0,30,0.00,,,0.00,455.000000,,2013-05-29 15:42:00,
2013-05-29 08:53:00,60.0,28.0,-100.00,WSW,250,7.0,15.0,30,0.00,,,0.00,455.000000,,2013-05-29 15:53:00,
2013-05-29 09:03:00,60.0,28.0,-100.00,WSW,250,7.0,15.0,30,0.00,,,0.00,455.000000,,2013-05-29 16:03:00,
2013-05-29 09:33:00,63.0,26.0,-100.00,WSW,254,9.0,17.0,24,0.00,,,0.00,648.000000,,2013-05-29 16:33:00,
2013-05-29 09:42:00,63.0,26.0,-100.00,WSW,254,9.0,17.0,24,0.00,,,0.00,648.000000,,2013-05-29 16:42:00,
2013-05-29 09:52:00,63.0,26.0,-100.00,WSW,254,9.0,17.0,24,0.00,,,0.00,648.000000,,2013-05-29 16:52:00,
2013-05-29 10:02:00,63.0,26.0,-100.00,WSW,254,9.0,17.0,24,0.00,,,0.00,648.000000,,2013-05-29 17:02:00,
2013-05-29 10:32:00,66.0,28.0,-100.00,West,260,11.0,22.0,24,0.00,,,0.00,810.000000,,2013-05-29 17:32:00,
2013-05-29 10:42:00,66.0,28.0,-100.00,West,260,11.0,22.0,24,0.00,,,0.00,810.000000,,2013-05-29 17:42:00,
2013-05-29 10:52:00,66.0,28.0,-100.00,West,260,11.0,22.0,24,0.00,,,0.00,810.000000,,2013-05-29 17:52:00,
2013-05-29 11:01:00,66.0,28.0,-100.00,West,260,11.0,22.0,24,0.00,,,0.00,810.000000,,2013-05-29 18:01:00,
2013-05-29 11:32:00,68.0,27.0,-100.00,WSW,247,12.0,25.0,21,0.00,,,0.00,885.000000,,2013-05-29 18:32:00,
2013-05-29 11:42:00,68.0,27.0,-100.00,WSW,247,12.0,25.0,21,0.00,,,0.00,885.000000,,2013-05-29 18:42:00,
2013-05-29 11:52:00,68.0,27.0,-100.00,WSW,247,12.0,25.0,21,0.00,,,0.00,885.000000,,2013-05-29 18:52:00,
2013-05-29 12:01:00,68.0,27.0,-100.00,WSW,247,12.0,25.0,21,0.00,,,0.00,885.000000,,2013-05-29 19:01:00,
2013-05-29 12:32:00,68.0,27.0,-100.00,WSW,258,14.0,27.0,21,0.00,,,0.00,879.000000,,2013-05-29 19:32:00,
2013-05-29 12:44:00,68.0,27.0,-100.00,WSW,258,14.0,27.0,21,0.00,,,0.00,879.000000,,2013-05-29 19:44:00,
2013-05-29 12:53:00,68.0,27.0,-100.00,WSW,258,14.0,27.0,21,0.00,,,0.00,879.000000,,2013-05-29 19:53:00,
2013-05-29 13:02:00,68.0,27.0,-100.00,WSW,258,14.0,27.0,21,0.00,,,0.00,879.000000,,2013-05-29 20:02:00,
2013-05-29 13:33:00,69.0,24.0,-100.00,WSW,247,14.0,30.0,18,0.00,,,0.00,956.000000,,2013-05-29 20:33:00,
2013-05-29 13:42:00,69.0,24.0,-100.00,WSW,247,14.0,30.0,18,0.00,,,0.00,956.000000,,2013-05-29 20:42:00,
2013-05-29 13:52:00,69.0,24.0,-100.00,WSW,247,14.0,30.0,18,0.00,,,0.00,956.000000,,2013-05-29 20:52:00,
2013-05-29 14:02:00,69.0,24.0,-100.00,WSW,247,14.0,30.0,18,0.00,,,0.00,956.000000,,2013-05-29 21:02:00,
2013-05-29 14:33:00,72.0,25.0,-100.00,WSW,248,13.0,27.0,17,0.00,,,0.00,1026.000000,,2013-05-29 21:33:00,
2013-05-29 14:44:00,72.0,25.0,-100.00,WSW,248,13.0,27.0,17,0.00,,,0.00,1026.000000,,2013-05-29 21:44:00,
2013-05-29 14:53:00,72.0,25.0,-100.00,WSW,248,13.0,27.0,17,0.00,,,0.00,1026.000000,,2013-05-29 21:53:00,
2013-05-29 15:03:00,72.0,25.0,-100.00,WSW,248,13.0,27.0,17,0.00,,,0.00,1026.000000,,2013-05-29 22:03:00,
2013-05-29 15:34:00,74.0,26.0,-100.00,WSW,244,12.0,27.0,17,0.00,,,0.00,889.000000,,2013-05-29 22:34:00,
2013-05-29 15:42:00,74.0,26.0,-100.00,WSW,244,12.0,27.0,17,0.00,,,0.00,889.000000,,2013-05-29 22:42:00,
2013-05-29 15:53:00,74.0,26.0,-100.00,WSW,244,12.0,27.0,17,0.00,,,0.00,889.000000,,2013-05-29 22:53:00,
2013-05-29 16:02:00,74.0,26.0,-100.00,WSW,244,12.0,27.0,17,0.00,,,0.00,889.000000,,2013-05-29 23:02:00,
2013-05-29 16:33:00,72.0,25.0,-100.00,WSW,241,11.0,24.0,17,0.00,,,0.00,591.000000,,2013-05-29 23:33:00,
2013-05-29 16:42:00,72.0,25.0,-100.00,WSW,241,11.0,24.0,17,0.00,,,0.00,591.000000,,2013-05-29 23:42:00,
2013-05-29 16:53:00,72.0,25.0,-100.00,WSW,241,11.0,24.0,17,0.00,,,0.00,591.000000,,2013-05-29 23:53:00,
2013-05-29 17:01:00,72.0,25.0,-100.00,WSW,241,11.0,24.0,17,0.00,,,0.00,591.000000,,2013-05-30 00:01:00,
2013-05-29 17:32:00,70.0,25.0,-100.00,WSW,238,13.0,25.0,18,0.00,,,0.00,442.000000,,2013-05-30 00:32:00,
2013-05-29 17:42:00,70.0,25.0,-100.00,WSW,238,13.0,25.0,18,0.00,,,0.00,442.000000,,2013-05-30 00:42:00,
2013-05-29 17:52:00,70.0,25.0,-100.00,WSW,238,13.0,25.0,18,0.00,,,0.00,442.000000,,2013-05-30 00:52:00,
2013-05-29 18:01:00,70.0,25.0,-100.00,WSW,238,13.0,25.0,18,0.00,,,0.00,442.000000,,2013-05-30 01:01:00,
2013-05-29 18:32:00,69.0,25.0,-100.00,WSW,245,15.0,27.0,19,0.00,,,0.00,332.000000,,2013-05-30 01:32:00,
2013-05-29 18:42:00,69.0,25.0,-100.00,WSW,245,15.0,27.0,19,0.00,,,0.00,332.000000,,2013-05-30 01:42:00,
2013-05-29 18:52:00,69.0,25.0,-100.00,WSW,245,15.0,27.0,19,0.00,,,0.00,332.000000,,2013-05-30 01:52:00,
2013-05-29 19:01:00,69.0,25.0,-100.00,WSW,245,15.0,27.0,19,0.00,,,0.00,332.000000,,2013-05-30 02:01:00,
2013-05-29 19:32:00,66.0,24.0,-100.00,WSW,237,13.0,26.0,20,0.00,,,0.00,131.000000,,2013-05-30 02:32:00,
2013-05-29 19:42:00,66.0,24.0,-100.00,WSW,237,13.0,26.0,20,0.00,,,0.00,131.000000,,2013-05-30 02:42:00,
2013-05-29 19:52:00,66.0,24.0,-100.00,WSW,237,13.0,26.0,20,0.00,,,0.00,131.000000,,2013-05-30 02:52:00,
2013-05-29 20:01:00,66.0,24.0,-100.00,WSW,237,13.0,26.0,20,0.00,,,0.00,131.000000,,2013-05-30 03:01:00,
2013-05-29 20:33:00,63.0,25.0,-100.00,SW,225,7.0,21.0,23,0.00,,,0.00,7.000000,,2013-05-30 03:33:00,
2013-05-29 20:43:00,63.0,25.0,-100.00,SW,225,7.0,21.0,23,0.00,,,0.00,7.000000,,2013-05-30 03:43:00,
2013-05-29 20:53:00,63.0,25.0,-100.00,SW,225,7.0,21.0,23,0.00,,,0.00,7.000000,,2013-05-30 03:53:00,
2013-05-29 21:02:00,63.0,25.0,-100.00,SW,225,7.0,21.0,23,0.00,,,0.00,7.000000,,2013-05-30 04:02:00,
2013-05-29 21:33:00,60.0,25.0,-100.00,SW,226,7.0,12.0,26,0.00,,,-99.99,0.000000,,2013-05-30 04:33:00,
2013-05-29 21:42:00,60.0,25.0,-100.00,SW,226,7.0,12.0,26,0.00,,,-99.99,0.000000,,2013-05-30 04:42:00,
2013-05-29 21:53:00,60.0,25.0,-100.00,SW,226,7.0,12.0,26,0.00,,,-99.99,0.000000,,2013-05-30 04:53:00,
2013-05-29 22:02:00,60.0,25.0,-100.00,SW,226,7.0,12.0,26,0.00,,,-99.99,0.000000,,2013-05-30 05:02:00,
2013-05-29 22:32:00,57.0,24.0,-100.00,SW,222,5.0,11.0,28,0.00,,,0.00,0.000000,,2013-05-30 05:32:00,
2013-05-29 22:42:00,57.0,24.0,-100.00,SW,222,5.0,11.0,28,0.00,,,0.00,0.000000,,2013-05-30 05:42:00,
2013-05-29 22:52:00,57.0,24.0,-100.00,SW,222,5.0,11.0,28,0.00,,,0.00,0.000000,,2013-05-30 05:52:00,
2013-05-29 23:01:00,57.0,24.0,-100.00,SW,222,5.0,11.0,28,0.00,,,0.00,0.000000,,2013-05-30 06:01:00,
2013-05-29 23:32:00,55.0,24.0,-100.00,SW,227,4.0,9.0,30,0.00,,,0.00,0.000000,,2013-05-30 06:32:00,
2013-05-29 23:42:00,55.0,24.0,-100.00,SW,227,4.0,9.0,30,0.00,,,0.00,0.000000,,2013-05-30 06:42:00,
2013-05-29 23:52:00,55.0,24.0,-100.00,SW,227,4.0,9.0,30,0.00,,,0.00,0.000000,,2013-05-30 06:52:00,